Regional Weather Roundup
Issued by NWS

Home | Current Version | Previous Version | Graphics & Text | Print | Product List | Glossary On
Versions: 1 2 3 4 5 6 7 8 9 10 11 12 13 14 15 16 17 18 19 20 21 22 23 24 25 26 27 28 29 30 31 32 33 34 35 36 37 38 39 40 41 42 43 44 45 46 47 48 49 50
000
ASUS43 KFSD 102202
RWRSD

WEATHER ROUNDUP FOR SOUTH DAKOTA
NATIONAL WEATHER SERVICE SIOUX FALLS SD
400 PM CST SAT DEC 10 2016

NOTE: "FAIR" INDICATES FEW OR NO CLOUDS BELOW 12,000 FEET WITH NO
SIGNIFICANT WEATHER AND/OR OBSTRUCTIONS TO VISIBILITY.


SDZ001>005-009-010-012>017-102300-
NORTHWEST AND NORTH CENTRAL SOUTH DAKOTA

CITY           SKY/WX    TMP DP  RH WIND       PRES   REMARKS
BUFFALO          N/A      2  -3  80 E13       29.71S WCI -15
FAITH            N/A      3  -1  83 E15       29.87F WCI -16
MOBRIDGE       LGT SNOW   4  -4  69 E13       30.00F WCI -13
$$

SDZ012>016-024>037-041>051-057-063-072>074-102300-
SOUTHWEST AND SOUTH CENTRAL SOUTH DAKOTA

CITY           SKY/WX    TMP DP  RH WIND       PRES   REMARKS
RAPID CTY ARPT CLOUDY     8   2  76 E6        29.78F WCI  -2
PIERRE         CLOUDY     6   1  80 E18       29.96F WCI -13
CUSTER         CLOUDY    37  26  64 W12G21    29.59F
ELLSWORTH AFB  LGT SNOW   7   2  81 E9        29.76  WCI  -7
PHILIP         CLOUDY     6   2  83 E10       29.90F WCI  -9
PINE RIDGE     CLOUDY    19  14  81 NE10      29.72F WCI   7
SPEARFISH      FAIR       9   3  78 E7        29.67F WCI  -3
WINNER         CLOUDY    18  15  88 E13       29.89F FOG     WCI   5
$$

SDZ004>011-016>023-039-040-102300-
NORTHEAST SOUTH DAKOTA

CITY           SKY/WX    TMP DP  RH WIND       PRES   REMARKS
ABERDEEN       LGT SNOW   6  -2  69 E14       30.14F WCI -11
WATERTOWN      SNOW       3  -1  83 E13G22    30.09F VSB 1/2 WCI -14
SISSETON         N/A      3  -2  79 SE9       30.20F WCI -12
$$

SDZ017-020-022-023-036>040-048>070-102300-
SOUTHEAST SOUTH DAKOTA

CITY           SKY/WX    TMP DP  RH WIND       PRES   REMARKS
SIOUX FALLS    LGT SNOW  16  12  86 E17       30.06F VSB 3/4 WCI   0
HURON          MIX PCPN  13   9  84 E9        30.06F WCI   1
MITCHELL       CLOUDY    18  14  84 SE14      30.06R WCI   4
YANKTON        CLOUDY    21  18  86 SE13      30.02F WCI   9
$$

ABBREVIATIONS USED IN REMARKS
   TC - TEMPERATURE IN CELSIUS
  WCI - WIND CHILL INDEX
   HX - HEAT INDEX
  VSB - VISIBILITY





USA.gov is the U.S. government's official web portal to all federal, state and local government web resources and services.